{"data":{"norad_id":59142,"epoch":"2026-05-24T23:10:51.803040Z","epoch_age_seconds":74419,"freshness":"FRESH","line1":"1 59142U 24043AW  26144.96587735  .00335250  47407-4  78708-3 0  9998","line2":"2 59142  97.5329 303.5074 0006961 244.4040 115.6517 15.96866980124898","mean_motion":15.9686698,"eccentricity":0.0006961,"inclination_deg":97.5329,"raan_deg":303.5074,"arg_perigee_deg":244.404,"mean_anomaly_deg":115.6517,"bstar":0.00078708,"rev_number":12489,"period_min":90.176578139276,"perigee_km":278.48041050057,"apogee_km":287.75420875043,"semimajor_km":6661.2543096255,"source":"CELESTRAK","updated_at":"2026-05-25T13:38:01.199527Z"}}